Time,TemperatureF,DewpointF,PressureIn,WindDirection,WindDirectionDegrees,WindSpeedMPH,WindSpeedGustMPH,Humidity,HourlyPrecipIn,Conditions,Clouds,dailyrainin,SoftwareType,DateUTC
2013-05-30 00:09:00,64.4,62.0,29.60,East,89,5.0,-999.0,91,-99.99,,,0.00,weatherlink.com 1.10,2013-05-30 05:09:00,
2013-05-30 00:23:00,64.3,61.0,29.60,East,89,5.0,-999.0,90,-99.99,,,0.00,weatherlink.com 1.10,2013-05-30 05:23:00,
2013-05-30 00:38:00,64.3,61.0,29.61,ESE,102,4.0,-999.0,90,-99.99,,,0.00,weatherlink.com 1.10,2013-05-30 05:38:00,
2013-05-30 00:52:00,64.1,61.0,29.59,ESE,112,11.0,-999.0,91,-99.99,,,0.01,weatherlink.com 1.10,2013-05-30 05:52:00,
2013-05-30 01:06:00,63.8,61.0,29.59,ENE,62,5.0,-999.0,91,-99.99,,,0.01,weatherlink.com 1.10,2013-05-30 06:06:00,
2013-05-30 01:21:00,63.6,61.0,29.59,ENE,75,3.0,-999.0,91,-99.99,,,0.01,weatherlink.com 1.10,2013-05-30 06:21:00,
2013-05-30 01:35:00,63.5,61.0,29.59,ESE,104,6.0,-999.0,91,-99.99,,,0.01,weatherlink.com 1.10,2013-05-30 06:35:00,
2013-05-30 01:49:00,63.6,61.0,29.58,East,96,5.0,-999.0,92,-99.99,,,0.01,weatherlink.com 1.10,2013-05-30 06:49:00,
2013-05-30 02:03:00,63.7,61.0,29.57,East,79,5.0,-999.0,92,-99.99,,,0.01,weatherlink.com 1.10,2013-05-30 07:03:00,
2013-05-30 02:18:00,63.7,61.0,29.57,ESE,102,4.0,-999.0,92,-99.99,,,0.01,weatherlink.com 1.10,2013-05-30 07:18:00,
2013-05-30 02:32:00,63.9,62.0,29.57,ENE,73,3.0,-999.0,92,-99.99,,,0.01,weatherlink.com 1.10,2013-05-30 07:32:00,
2013-05-30 02:46:00,64.2,62.0,29.56,East,81,3.0,-999.0,92,-99.99,,,0.01,weatherlink.com 1.10,2013-05-30 07:46:00,
2013-05-30 03:00:00,64.5,62.0,29.55,ESE,102,6.0,-999.0,92,-99.99,,,0.01,weatherlink.com 1.10,2013-05-30 08:00:00,
2013-05-30 03:15:00,64.9,63.0,29.55,ESE,116,7.0,-999.0,92,-99.99,,,0.01,weatherlink.com 1.10,2013-05-30 08:15:00,
2013-05-30 03:29:00,65.2,63.0,29.53,ESE,108,6.0,-999.0,91,-99.99,,,0.01,weatherlink.com 1.10,2013-05-30 08:29:00,
2013-05-30 03:43:00,65.4,63.0,29.51,East,100,7.0,-999.0,91,-99.99,,,0.02,weatherlink.com 1.10,2013-05-30 08:43:00,
2013-05-30 03:58:00,65.6,63.0,29.52,ESE,113,7.0,-999.0,92,-99.99,,,0.02,weatherlink.com 1.10,2013-05-30 08:58:00,
2013-05-30 04:12:00,65.8,63.0,29.51,ESE,108,5.0,-999.0,92,-99.99,,,0.02,weatherlink.com 1.10,2013-05-30 09:12:00,
2013-05-30 04:26:00,66.0,64.0,29.51,East,101,2.0,-999.0,92,-99.99,,,0.02,weatherlink.com 1.10,2013-05-30 09:26:00,
2013-05-30 04:40:00,66.5,64.0,29.49,ENE,73,10.0,-999.0,91,-99.99,,,0.02,weatherlink.com 1.10,2013-05-30 09:40:00,
2013-05-30 04:55:00,66.7,64.0,29.50,East,101,9.0,-999.0,90,-99.99,,,0.02,weatherlink.com 1.10,2013-05-30 09:55:00,
2013-05-30 05:09:00,66.6,64.0,29.50,ESE,112,7.0,-999.0,90,-99.99,,,0.03,weatherlink.com 1.10,2013-05-30 10:09:00,
2013-05-30 05:23:00,66.6,64.0,29.50,ESE,122,8.0,-999.0,90,-99.99,,,0.03,weatherlink.com 1.10,2013-05-30 10:23:00,
2013-05-30 05:37:00,66.7,63.0,29.50,ESE,119,12.0,-999.0,89,-99.99,,,0.03,weatherlink.com 1.10,2013-05-30 10:37:00,
2013-05-30 05:52:00,66.6,63.0,29.49,ESE,111,9.0,-999.0,89,-99.99,,,0.03,weatherlink.com 1.10,2013-05-30 10:52:00,
2013-05-30 06:06:00,66.7,63.0,29.48,ESE,122,6.0,-999.0,89,-99.99,,,0.03,weatherlink.com 1.10,2013-05-30 11:06:00,
2013-05-30 06:21:00,66.9,64.0,29.48,East,91,3.0,-999.0,89,-99.99,,,0.03,weatherlink.com 1.10,2013-05-30 11:21:00,
2013-05-30 06:35:00,67.2,64.0,29.47,East,87,6.0,-999.0,88,-99.99,,,0.03,weatherlink.com 1.10,2013-05-30 11:35:00,
2013-05-30 06:49:00,67.7,64.0,29.47,East,87,6.0,-999.0,88,-99.99,,,0.03,weatherlink.com 1.10,2013-05-30 11:49:00,
2013-05-30 07:04:00,68.3,64.0,29.46,East,98,12.0,-999.0,87,-99.99,,,0.03,weatherlink.com 1.10,2013-05-30 12:04:00,
2013-05-30 07:18:00,69.3,65.0,29.46,ESE,118,7.0,-999.0,86,-99.99,,,0.03,weatherlink.com 1.10,2013-05-30 12:18:00,
2013-05-30 07:32:00,69.1,64.0,29.47,ESE,120,14.0,-999.0,85,-99.99,,,0.03,weatherlink.com 1.10,2013-05-30 12:32:00,
2013-05-30 07:46:00,69.8,65.0,29.50,ESE,111,6.0,-999.0,84,-99.99,,,0.03,weatherlink.com 1.10,2013-05-30 12:46:00,
2013-05-30 08:01:00,69.4,64.0,29.52,ESE,120,3.0,-999.0,84,-99.99,,,0.03,weatherlink.com 1.10,2013-05-30 13:01:00,
2013-05-30 08:15:00,69.8,64.0,29.52,SE,139,4.0,-999.0,83,-99.99,,,0.03,weatherlink.com 1.10,2013-05-30 13:15:00,
2013-05-30 08:29:00,69.9,64.0,29.52,SE,127,11.0,-999.0,83,-99.99,,,0.03,weatherlink.com 1.10,2013-05-30 13:29:00,
2013-05-30 08:43:00,69.8,64.0,29.52,ESE,110,10.0,-999.0,81,-99.99,,,0.03,weatherlink.com 1.10,2013-05-30 13:43:00,
2013-05-30 08:58:00,70.2,64.0,29.52,ESE,119,11.0,-999.0,81,-99.99,,,0.03,weatherlink.com 1.10,2013-05-30 13:58:00,
2013-05-30 09:12:00,69.7,64.0,29.52,SE,142,11.0,-999.0,81,-99.99,,,0.03,weatherlink.com 1.10,2013-05-30 14:12:00,
2013-05-30 09:26:00,69.2,63.0,29.53,SSE,153,4.0,-999.0,81,-99.99,,,0.03,weatherlink.com 1.10,2013-05-30 14:26:00,
2013-05-30 09:41:00,69.0,63.0,29.53,SE,128,15.0,-999.0,80,-99.99,,,0.03,weatherlink.com 1.10,2013-05-30 14:41:00,
2013-05-30 09:55:00,68.8,62.0,29.54,South,174,12.0,-999.0,79,-99.99,,,0.03,weatherlink.com 1.10,2013-05-30 14:55:00,
2013-05-30 10:09:00,68.6,62.0,29.54,SSE,152,3.0,-999.0,79,-99.99,,,0.03,weatherlink.com 1.10,2013-05-30 15:09:00,
2013-05-30 10:23:00,68.5,62.0,29.54,SE,128,2.0,-999.0,79,-99.99,,,0.03,weatherlink.com 1.10,2013-05-30 15:23:00,
2013-05-30 10:38:00,69.6,62.0,29.53,ESE,114,8.0,-999.0,78,-99.99,,,0.03,weatherlink.com 1.10,2013-05-30 15:38:00,
2013-05-30 10:52:00,70.8,63.0,29.54,WSW,239,6.0,-999.0,77,-99.99,,,0.03,weatherlink.com 1.10,2013-05-30 15:52:00,
2013-05-30 11:06:00,70.1,63.0,29.54,South,191,9.0,-999.0,77,-99.99,,,0.03,weatherlink.com 1.10,2013-05-30 16:06:00,
2013-05-30 11:20:00,69.9,63.0,29.55,ESE,110,4.0,-999.0,78,-99.99,,,0.03,weatherlink.com 1.10,2013-05-30 16:20:00,
2013-05-30 11:35:00,69.7,63.0,29.54,ESE,102,11.0,-999.0,78,-99.99,,,0.03,weatherlink.com 1.10,2013-05-30 16:35:00,
2013-05-30 11:49:00,69.6,62.0,29.55,SE,139,3.0,-999.0,76,-99.99,,,0.03,weatherlink.com 1.10,2013-05-30 16:49:00,
2013-05-30 12:04:00,69.8,63.0,29.55,South,173,4.0,-999.0,78,-99.99,,,0.03,weatherlink.com 1.10,2013-05-30 17:04:00,
2013-05-30 12:18:00,69.5,62.0,29.55,ESE,114,3.0,-999.0,78,-99.99,,,0.03,weatherlink.com 1.10,2013-05-30 17:18:00,
2013-05-30 12:32:00,69.4,62.0,29.55,SE,143,5.0,-999.0,78,-99.99,,,0.03,weatherlink.com 1.10,2013-05-30 17:32:00,
2013-05-30 12:46:00,69.5,63.0,29.55,ESE,114,6.0,-999.0,79,-99.99,,,0.03,weatherlink.com 1.10,2013-05-30 17:46:00,
2013-05-30 13:01:00,69.3,62.0,29.55,ESE,107,9.0,-999.0,78,-99.99,,,0.03,weatherlink.com 1.10,2013-05-30 18:01:00,
2013-05-30 13:15:00,69.5,63.0,29.55,SE,133,5.0,-999.0,79,-99.99,,,0.03,weatherlink.com 1.10,2013-05-30 18:15:00,
2013-05-30 13:29:00,70.1,63.0,29.55,ESE,123,14.0,-999.0,77,-99.99,,,0.03,weatherlink.com 1.10,2013-05-30 18:29:00,
2013-05-30 13:43:00,69.9,63.0,29.54,ESE,111,11.0,-999.0,78,-99.99,,,0.03,weatherlink.com 1.10,2013-05-30 18:43:00,
2013-05-30 13:58:00,70.4,62.0,29.54,ESE,116,8.0,-999.0,76,-99.99,,,0.03,weatherlink.com 1.10,2013-05-30 18:58:00,
2013-05-30 14:12:00,69.9,62.0,29.54,SSE,158,4.0,-999.0,77,-99.99,,,0.03,weatherlink.com 1.10,2013-05-30 19:12:00,
2013-05-30 14:26:00,72.2,63.0,29.53,ESE,112,14.0,-999.0,74,-99.99,,,0.03,weatherlink.com 1.10,2013-05-30 19:26:00,
2013-05-30 14:40:00,72.1,63.0,29.52,SE,129,3.0,-999.0,74,-99.99,,,0.03,weatherlink.com 1.10,2013-05-30 19:40:00,
2013-05-30 14:55:00,73.3,65.0,29.51,SE,128,10.0,-999.0,74,-99.99,,,0.03,weatherlink.com 1.10,2013-05-30 19:55:00,
2013-05-30 15:09:00,72.4,63.0,29.51,East,94,4.0,-999.0,73,-99.99,,,0.03,weatherlink.com 1.10,2013-05-30 20:09:00,
2013-05-30 15:23:00,72.8,63.0,29.50,ESE,112,5.0,-999.0,71,-99.99,,,0.03,weatherlink.com 1.10,2013-05-30 20:23:00,
2013-05-30 15:37:00,72.7,63.0,29.50,SE,137,7.0,-999.0,71,-99.99,,,0.03,weatherlink.com 1.10,2013-05-30 20:37:00,
2013-05-30 15:52:00,73.0,63.0,29.49,East,101,5.0,-999.0,70,-99.99,,,0.03,weatherlink.com 1.10,2013-05-30 20:52:00,
2013-05-30 16:06:00,72.6,63.0,29.49,ESE,123,5.0,-999.0,71,-99.99,,,0.03,weatherlink.com 1.10,2013-05-30 21:06:00,
2013-05-30 16:20:00,69.9,64.0,29.49,East,86,3.0,-999.0,81,-99.99,,,0.04,weatherlink.com 1.10,2013-05-30 21:20:00,
2013-05-30 16:34:00,68.5,64.0,29.48,ESE,112,3.0,-999.0,87,-99.99,,,0.04,weatherlink.com 1.10,2013-05-30 21:34:00,
2013-05-30 16:49:00,69.5,65.0,29.48,SE,137,3.0,-999.0,86,-99.99,,,0.04,weatherlink.com 1.10,2013-05-30 21:49:00,
2013-05-30 17:03:00,70.1,64.0,29.48,ESE,114,3.0,-999.0,82,-99.99,,,0.04,weatherlink.com 1.10,2013-05-30 22:03:00,
2013-05-30 17:17:00,70.5,64.0,29.47,SE,126,4.0,-999.0,79,-99.99,,,0.04,weatherlink.com 1.10,2013-05-30 22:17:00,
2013-05-30 17:31:00,70.6,63.0,29.48,ESE,110,11.0,-999.0,78,-99.99,,,0.04,weatherlink.com 1.10,2013-05-30 22:31:00,
2013-05-30 17:46:00,70.0,64.0,29.48,SE,125,6.0,-999.0,80,-99.99,,,0.04,weatherlink.com 1.10,2013-05-30 22:46:00,
2013-05-30 18:00:00,70.6,64.0,29.47,SE,139,15.0,-999.0,79,-99.99,,,0.04,weatherlink.com 1.10,2013-05-30 23:00:00,
2013-05-30 18:14:00,69.8,63.0,29.47,SE,135,3.0,-999.0,80,-99.99,,,0.04,weatherlink.com 1.10,2013-05-30 23:14:00,
2013-05-30 18:29:00,69.6,63.0,29.46,ENE,65,4.0,-999.0,79,-99.99,,,0.04,weatherlink.com 1.10,2013-05-30 23:29:00,
2013-05-30 18:43:00,67.6,62.0,29.47,SSW,197,5.0,-999.0,81,-99.99,,,0.04,weatherlink.com 1.10,2013-05-30 23:43:00,
2013-05-30 18:57:00,68.7,63.0,29.46,South,183,0.0,-999.0,82,-99.99,,,0.04,weatherlink.com 1.10,2013-05-30 23:57:00,
2013-05-30 19:12:00,69.4,63.0,29.45,South,191,0.0,-999.0,80,-99.99,,,0.04,weatherlink.com 1.10,2013-05-31 00:12:00,
2013-05-30 19:26:00,69.1,62.0,29.46,SE,127,3.0,-999.0,79,-99.99,,,0.04,weatherlink.com 1.10,2013-05-31 00:26:00,
2013-05-30 19:40:00,68.2,62.0,29.48,ESE,105,5.0,-999.0,81,-99.99,,,0.04,weatherlink.com 1.10,2013-05-31 00:40:00,
2013-05-30 19:54:00,67.7,62.0,29.48,ESE,123,3.0,-999.0,82,-99.99,,,0.04,weatherlink.com 1.10,2013-05-31 00:54:00,
2013-05-30 20:08:00,67.9,62.0,29.48,East,98,5.0,-999.0,82,-99.99,,,0.04,weatherlink.com 1.10,2013-05-31 01:08:00,
2013-05-30 20:23:00,67.9,63.0,29.48,ESE,120,5.0,-999.0,83,-99.99,,,0.04,weatherlink.com 1.10,2013-05-31 01:23:00,
2013-05-30 20:37:00,67.6,63.0,29.48,SE,125,2.0,-999.0,84,-99.99,,,0.04,weatherlink.com 1.10,2013-05-31 01:37:00,
2013-05-30 20:51:00,67.5,63.0,29.46,East,83,2.0,-999.0,85,-99.99,,,0.04,weatherlink.com 1.10,2013-05-31 01:51:00,
2013-05-30 21:05:00,67.1,63.0,29.46,ESE,110,5.0,-999.0,86,-99.99,,,0.04,weatherlink.com 1.10,2013-05-31 02:05:00,
2013-05-30 21:20:00,66.4,62.0,29.46,ESE,111,2.0,-999.0,87,-99.99,,,0.04,weatherlink.com 1.10,2013-05-31 02:20:00,
2013-05-30 21:34:00,65.6,62.0,29.46,East,96,0.0,-999.0,89,-99.99,,,0.04,weatherlink.com 1.10,2013-05-31 02:34:00,
2013-05-30 21:48:00,65.1,62.0,29.47,SE,129,4.0,-999.0,90,-99.99,,,0.04,weatherlink.com 1.10,2013-05-31 02:48:00,
2013-05-30 22:02:00,65.0,62.0,29.48,SE,136,7.0,-999.0,90,-99.99,,,0.04,weatherlink.com 1.10,2013-05-31 03:02:00,
2013-05-30 22:17:00,64.8,62.0,29.49,ESE,123,3.0,-999.0,90,-99.99,,,0.04,weatherlink.com 1.10,2013-05-31 03:17:00,
2013-05-30 22:31:00,64.7,62.0,29.49,ESE,118,4.0,-999.0,90,-99.99,,,0.04,weatherlink.com 1.10,2013-05-31 03:31:00,
2013-05-30 22:45:00,64.5,62.0,29.49,SE,135,5.0,-999.0,90,-99.99,,,0.04,weatherlink.com 1.10,2013-05-31 03:45:00,
2013-05-30 22:59:00,64.4,61.0,29.49,SE,133,4.0,-999.0,90,-99.99,,,0.04,weatherlink.com 1.10,2013-05-31 03:59:00,
2013-05-30 23:14:00,64.3,61.0,29.49,SE,142,4.0,-999.0,90,-99.99,,,0.04,weatherlink.com 1.10,2013-05-31 04:14:00,
2013-05-30 23:28:00,64.2,61.0,29.49,ESE,121,3.0,-999.0,89,-99.99,,,0.04,weatherlink.com 1.10,2013-05-31 04:28:00,
2013-05-30 23:42:00,64.0,61.0,29.48,SE,142,5.0,-999.0,89,-99.99,,,0.04,weatherlink.com 1.10,2013-05-31 04:42:00,
2013-05-30 23:56:00,63.9,61.0,29.48,SE,127,5.0,-999.0,89,-99.99,,,0.04,weatherlink.com 1.10,2013-05-31 04:56:00,